Time,TemperatureF,DewpointF,PressureIn,WindDirection,WindDirectionDegrees,WindSpeedMPH,WindSpeedGustMPH,Humidity,HourlyPrecipIn,Conditions,Clouds,dailyrainin,SolarRadiationWatts/m^2,SoftwareType,DateUTC
2013-03-13 00:07:00,76.4,61.0,30.01,NE,47,6.0,17.0,59,0.00,,,0.00,0,weatherlink.com 1.10,2013-03-13 04:07:00,
2013-03-13 00:23:00,76.1,61.0,30.01,WSW,249,2.0,15.0,59,0.00,,,0.00,0,weatherlink.com 1.10,2013-03-13 04:23:00,
2013-03-13 00:38:00,76.0,61.0,30.00,NE,56,10.0,15.0,60,0.00,,,0.00,0,weatherlink.com 1.10,2013-03-13 04:38:00,
2013-03-13 00:53:00,76.0,60.0,30.00,ENE,73,7.0,13.0,58,0.00,,,0.00,0,weatherlink.com 1.10,2013-03-13 04:53:00,
2013-03-13 01:08:00,76.0,60.0,30.00,ENE,65,5.0,16.0,57,0.00,,,0.00,0,weatherlink.com 1.10,2013-03-13 05:08:00,
2013-03-13 01:23:00,76.0,60.0,29.99,ENE,63,3.0,13.0,58,0.00,,,0.00,0,weatherlink.com 1.10,2013-03-13 05:23:00,
2013-03-13 01:38:00,75.9,60.0,29.99,ENE,57,12.0,16.0,58,0.00,,,0.00,0,weatherlink.com 1.10,2013-03-13 05:38:00,
2013-03-13 01:53:00,75.8,61.0,29.99,ENE,70,9.0,12.0,60,0.00,,,0.00,0,weatherlink.com 1.10,2013-03-13 05:53:00,
2013-03-13 02:08:00,75.7,59.0,29.99,NE,46,3.0,14.0,57,0.00,,,0.00,0,weatherlink.com 1.10,2013-03-13 06:08:00,
2013-03-13 02:23:00,75.6,59.0,29.98,ENE,78,5.0,11.0,57,0.00,,,0.00,0,weatherlink.com 1.10,2013-03-13 06:23:00,
2013-03-13 02:38:00,75.6,59.0,29.98,ENE,60,1.0,13.0,57,0.00,,,0.00,0,weatherlink.com 1.10,2013-03-13 06:38:00,
2013-03-13 02:53:00,75.5,60.0,29.98,ENE,68,8.0,13.0,58,0.00,,,0.00,0,weatherlink.com 1.10,2013-03-13 06:53:00,
2013-03-13 03:08:00,75.4,59.0,30.00,ENE,58,0.0,12.0,58,0.00,,,0.00,0,weatherlink.com 1.10,2013-03-13 07:08:00,
2013-03-13 03:23:00,75.4,59.0,29.99,NE,43,0.0,11.0,58,0.00,,,0.00,0,weatherlink.com 1.10,2013-03-13 07:23:00,
2013-03-13 03:38:00,75.3,60.0,29.99,NE,50,5.0,6.0,59,0.00,,,0.00,0,weatherlink.com 1.10,2013-03-13 07:38:00,
2013-03-13 03:53:00,75.3,60.0,29.98,ENE,69,9.0,11.0,59,0.00,,,0.00,0,weatherlink.com 1.10,2013-03-13 07:53:00,
2013-03-13 04:08:00,75.3,58.0,29.98,NE,50,2.0,14.0,56,0.00,,,0.00,0,weatherlink.com 1.10,2013-03-13 08:08:00,
2013-03-13 04:23:00,75.2,58.0,29.98,ENE,72,9.0,16.0,56,0.00,,,0.00,0,weatherlink.com 1.10,2013-03-13 08:23:00,
2013-03-13 04:38:00,75.1,59.0,29.98,ENE,67,1.0,8.0,57,0.00,,,0.00,0,weatherlink.com 1.10,2013-03-13 08:38:00,
2013-03-13 04:53:00,75.0,59.0,29.98,ENE,67,4.0,9.0,58,0.00,,,0.00,0,weatherlink.com 1.10,2013-03-13 08:53:00,
2013-03-13 05:08:00,75.1,59.0,29.98,ENE,76,2.0,9.0,57,0.00,,,0.00,0,weatherlink.com 1.10,2013-03-13 09:08:00,
2013-03-13 05:23:00,75.2,59.0,29.98,NE,51,1.0,8.0,57,0.00,,,0.00,0,weatherlink.com 1.10,2013-03-13 09:23:00,
2013-03-13 05:38:00,75.1,58.0,29.98,ENE,69,3.0,14.0,55,0.00,,,0.00,0,weatherlink.com 1.10,2013-03-13 09:38:00,
2013-03-13 05:53:00,75.0,58.0,29.98,ENE,74,7.0,11.0,56,0.00,,,0.00,0,weatherlink.com 1.10,2013-03-13 09:53:00,
2013-03-13 06:08:00,75.1,58.0,29.98,NE,42,4.0,12.0,56,0.00,,,0.00,0,weatherlink.com 1.10,2013-03-13 10:08:00,
2013-03-13 06:23:00,75.3,58.0,29.99,ENE,61,4.0,13.0,56,0.00,,,0.00,0,weatherlink.com 1.10,2013-03-13 10:23:00,
2013-03-13 06:38:00,75.3,58.0,29.99,SE,126,2.0,10.0,56,0.00,,,0.00,0,weatherlink.com 1.10,2013-03-13 10:38:00,
2013-03-13 06:53:00,75.3,59.0,30.00,SE,127,3.0,9.0,57,0.00,,,0.00,11,weatherlink.com 1.10,2013-03-13 10:53:00,
2013-03-13 07:08:00,75.3,59.0,30.00,East,90,1.0,9.0,57,0.00,,,0.00,26,weatherlink.com 1.10,2013-03-13 11:08:00,
2013-03-13 07:23:00,75.4,59.0,30.00,ESE,111,1.0,8.0,58,0.00,,,0.00,44,weatherlink.com 1.10,2013-03-13 11:23:00,
2013-03-13 07:38:00,75.6,59.0,30.00,ESE,116,2.0,5.0,57,0.00,,,0.00,69,weatherlink.com 1.10,2013-03-13 11:38:00,
2013-03-13 07:53:00,75.7,59.0,30.01,ESE,117,4.0,9.0,57,0.00,,,0.00,90,weatherlink.com 1.10,2013-03-13 11:53:00,
2013-03-13 08:08:00,75.9,59.0,30.01,SE,130,8.0,11.0,57,0.00,,,0.00,130,weatherlink.com 1.10,2013-03-13 12:08:00,
2013-03-13 08:23:00,76.3,59.0,30.02,East,94,10.0,10.0,56,0.00,,,0.00,169,weatherlink.com 1.10,2013-03-13 12:23:00,
2013-03-13 08:38:00,76.9,59.0,30.02,East,99,3.0,9.0,54,0.00,,,0.00,232,weatherlink.com 1.10,2013-03-13 12:38:00,
2013-03-13 08:53:00,77.4,59.0,30.02,East,84,6.0,9.0,53,0.00,,,0.00,216,weatherlink.com 1.10,2013-03-13 12:53:00,
2013-03-13 09:09:00,78.3,60.0,30.02,East,83,2.0,8.0,54,0.00,,,0.00,302,weatherlink.com 1.10,2013-03-13 13:09:00,
2013-03-13 09:24:00,79.1,61.0,30.02,ENE,58,7.0,7.0,54,0.00,,,0.00,302,weatherlink.com 1.10,2013-03-13 13:24:00,
2013-03-13 09:39:00,79.3,60.0,30.02,East,79,5.0,10.0,52,0.00,,,0.00,239,weatherlink.com 1.10,2013-03-13 13:39:00,
2013-03-13 09:54:00,79.7,60.0,30.03,ESE,117,5.0,10.0,52,0.00,,,0.00,508,weatherlink.com 1.10,2013-03-13 13:54:00,
2013-03-13 10:09:00,80.2,59.0,30.03,East,88,3.0,11.0,49,0.00,,,0.00,436,weatherlink.com 1.10,2013-03-13 14:09:00,
2013-03-13 10:24:00,81.2,60.0,30.03,ENE,61,4.0,13.0,48,0.00,,,0.00,475,weatherlink.com 1.10,2013-03-13 14:24:00,
2013-03-13 10:39:00,82.0,60.0,30.03,ESE,118,4.0,11.0,47,0.00,,,0.00,478,weatherlink.com 1.10,2013-03-13 14:39:00,
2013-03-13 10:54:00,82.5,61.0,30.03,East,95,9.0,10.0,49,0.00,,,0.00,649,weatherlink.com 1.10,2013-03-13 14:54:00,
2013-03-13 11:09:00,82.6,61.0,30.03,ENE,66,0.0,8.0,48,0.00,,,0.00,265,weatherlink.com 1.10,2013-03-13 15:09:00,
2013-03-13 11:24:00,82.5,62.0,30.02,ENE,75,9.0,14.0,50,0.00,,,0.00,434,weatherlink.com 1.10,2013-03-13 15:24:00,
2013-03-13 11:39:00,82.7,62.0,30.02,ENE,57,8.0,14.0,49,0.00,,,0.00,410,weatherlink.com 1.10,2013-03-13 15:39:00,
2013-03-13 11:54:00,82.8,62.0,30.01,East,84,7.0,13.0,50,0.00,,,0.00,577,weatherlink.com 1.10,2013-03-13 15:54:00,
2013-03-13 12:09:00,83.4,62.0,30.00,ENE,67,8.0,16.0,49,0.00,,,0.00,1097,weatherlink.com 1.10,2013-03-13 16:09:00,
2013-03-13 12:24:00,82.3,63.0,30.00,NE,55,8.0,17.0,52,0.00,,,0.00,617,weatherlink.com 1.10,2013-03-13 16:24:00,
2013-03-13 12:39:00,81.7,62.0,29.99,East,97,11.0,15.0,51,0.00,,,0.00,613,weatherlink.com 1.10,2013-03-13 16:39:00,
2013-03-13 12:54:00,82.8,62.0,29.99,NE,53,7.0,15.0,50,0.00,,,0.00,1016,weatherlink.com 1.10,2013-03-13 16:54:00,
2013-03-13 13:09:00,82.6,62.0,29.98,NNE,19,10.0,19.0,50,0.00,,,0.00,928,weatherlink.com 1.10,2013-03-13 17:09:00,
2013-03-13 13:24:00,83.0,61.0,29.97,East,92,7.0,16.0,47,0.00,,,0.00,911,weatherlink.com 1.10,2013-03-13 17:24:00,
2013-03-13 13:39:00,83.2,60.0,29.96,ENE,77,7.0,16.0,45,0.00,,,0.00,896,weatherlink.com 1.10,2013-03-13 17:39:00,
2013-03-13 13:54:00,83.9,61.0,29.96,ENE,57,3.0,16.0,46,0.00,,,0.00,877,weatherlink.com 1.10,2013-03-13 17:54:00,
2013-03-13 14:09:00,83.9,62.0,29.96,ENE,61,9.0,10.0,48,0.00,,,0.00,846,weatherlink.com 1.10,2013-03-13 18:09:00,
2013-03-13 14:24:00,83.7,62.0,29.95,ENE,69,9.0,16.0,48,0.00,,,0.00,821,weatherlink.com 1.10,2013-03-13 18:24:00,
2013-03-13 14:39:00,84.2,62.0,29.95,NE,56,7.0,14.0,48,0.00,,,0.00,777,weatherlink.com 1.10,2013-03-13 18:39:00,
2013-03-13 14:54:00,83.6,63.0,29.94,North,10,10.0,14.0,50,0.00,,,0.00,737,weatherlink.com 1.10,2013-03-13 18:54:00,
2013-03-13 15:09:00,83.9,64.0,29.94,ENE,58,2.0,12.0,52,0.00,,,0.00,698,weatherlink.com 1.10,2013-03-13 19:09:00,
2013-03-13 15:24:00,83.3,65.0,29.94,East,94,8.0,16.0,54,0.00,,,0.00,647,weatherlink.com 1.10,2013-03-13 19:24:00,
2013-03-13 15:39:00,83.2,65.0,29.94,ENE,63,7.0,15.0,54,0.00,,,0.00,598,weatherlink.com 1.10,2013-03-13 19:39:00,
2013-03-13 15:54:00,82.6,64.0,29.93,ENE,72,3.0,11.0,54,0.00,,,0.00,550,weatherlink.com 1.10,2013-03-13 19:54:00,
2013-03-13 16:09:00,82.3,65.0,29.93,ENE,57,5.0,11.0,57,0.00,,,0.00,499,weatherlink.com 1.10,2013-03-13 20:09:00,
2013-03-13 16:24:00,81.8,65.0,29.93,ENE,70,3.0,16.0,57,0.00,,,0.00,439,weatherlink.com 1.10,2013-03-13 20:24:00,
2013-03-13 16:39:00,81.2,65.0,29.93,East,98,14.0,16.0,58,0.00,,,0.00,332,weatherlink.com 1.10,2013-03-13 20:39:00,
2013-03-13 16:54:00,80.0,65.0,29.94,ENE,76,8.0,14.0,61,0.00,,,0.00,214,weatherlink.com 1.10,2013-03-13 20:54:00,
2013-03-13 17:09:00,79.4,65.0,29.93,ENE,74,7.0,17.0,62,0.00,,,0.00,153,weatherlink.com 1.10,2013-03-13 21:09:00,
2013-03-13 17:24:00,78.9,65.0,29.93,ENE,73,13.0,15.0,63,0.00,,,0.00,91,weatherlink.com 1.10,2013-03-13 21:24:00,
2013-03-13 17:39:00,78.7,66.0,29.93,ENE,63,8.0,16.0,65,0.00,,,0.00,56,weatherlink.com 1.10,2013-03-13 21:39:00,
2013-03-13 17:54:00,78.2,65.0,29.93,NE,53,4.0,15.0,65,0.00,,,0.00,77,weatherlink.com 1.10,2013-03-13 21:54:00,
2013-03-13 18:09:00,77.9,65.0,29.93,East,79,6.0,15.0,65,0.00,,,0.00,26,weatherlink.com 1.10,2013-03-13 22:09:00,
2013-03-13 18:24:00,77.4,66.0,29.93,ENE,71,8.0,15.0,67,0.00,,,0.00,12,weatherlink.com 1.10,2013-03-13 22:24:00,
2013-03-13 18:39:00,77.0,66.0,29.93,NE,56,10.0,18.0,69,0.00,,,0.00,0,weatherlink.com 1.10,2013-03-13 22:39:00,
2013-03-13 18:54:00,76.7,66.0,29.93,ENE,63,14.0,16.0,70,0.00,,,0.00,0,weatherlink.com 1.10,2013-03-13 22:54:00,
2013-03-13 19:09:00,76.5,66.0,29.93,ENE,66,5.0,15.0,70,0.00,,,0.00,0,weatherlink.com 1.10,2013-03-13 23:09:00,
2013-03-13 19:24:00,76.3,66.0,29.94,ENE,67,7.0,15.0,70,0.00,,,0.00,0,weatherlink.com 1.10,2013-03-13 23:24:00,
2013-03-13 19:40:00,76.2,66.0,29.94,NNE,19,8.0,21.0,71,0.00,,,0.00,0,weatherlink.com 1.10,2013-03-13 23:40:00,
2013-03-13 19:55:00,76.2,67.0,29.94,ENE,67,9.0,16.0,72,0.00,,,0.00,0,weatherlink.com 1.10,2013-03-13 23:55:00,
2013-03-13 20:10:00,76.2,66.0,29.95,East,84,10.0,16.0,71,0.00,,,0.00,0,weatherlink.com 1.10,2013-03-14 00:10:00,
2013-03-13 20:25:00,76.1,66.0,29.95,ENE,65,9.0,15.0,72,0.00,,,0.00,0,weatherlink.com 1.10,2013-03-14 00:25:00,
2013-03-13 20:40:00,76.0,66.0,29.96,ENE,78,8.0,16.0,71,0.00,,,0.00,0,weatherlink.com 1.10,2013-03-14 00:40:00,
2013-03-13 20:55:00,75.9,66.0,29.96,ENE,67,7.0,14.0,72,0.00,,,0.00,0,weatherlink.com 1.10,2013-03-14 00:55:00,
2013-03-13 21:10:00,75.8,66.0,29.96,East,88,15.0,15.0,72,0.00,,,0.00,0,weatherlink.com 1.10,2013-03-14 01:10:00,
2013-03-13 21:25:00,75.8,66.0,29.97,East,88,9.0,14.0,72,0.00,,,0.00,0,weatherlink.com 1.10,2013-03-14 01:25:00,
2013-03-13 21:40:00,75.8,66.0,29.97,East,83,7.0,15.0,71,0.00,,,0.00,0,weatherlink.com 1.10,2013-03-14 01:40:00,
2013-03-13 21:55:00,75.8,66.0,29.98,ENE,73,8.0,15.0,72,0.00,,,0.00,0,weatherlink.com 1.10,2013-03-14 01:55:00,
2013-03-13 22:10:00,76.0,66.0,29.98,East,85,7.0,13.0,71,0.00,,,0.00,0,weatherlink.com 1.10,2013-03-14 02:10:00,
2013-03-13 22:25:00,76.1,66.0,29.97,ENE,69,4.0,15.0,70,0.00,,,0.00,0,weatherlink.com 1.10,2013-03-14 02:25:00,
2013-03-13 22:40:00,76.0,66.0,29.97,ENE,65,10.0,17.0,70,0.00,,,0.00,0,weatherlink.com 1.10,2013-03-14 02:40:00,
2013-03-13 22:55:00,76.1,65.0,29.97,East,84,5.0,12.0,69,0.00,,,0.00,0,weatherlink.com 1.10,2013-03-14 02:55:00,
2013-03-13 23:10:00,76.4,65.0,29.97,ENE,70,0.0,10.0,67,0.00,,,0.00,0,weatherlink.com 1.10,2013-03-14 03:10:00,
2013-03-13 23:40:00,76.1,64.0,29.98,ESE,122,3.0,9.0,67,0.00,,,0.00,0,weatherlink.com 1.10,2013-03-14 03:40:00,
2013-03-13 23:55:00,76.1,65.0,29.98,ESE,108,3.0,7.0,68,0.00,,,0.00,0,weatherlink.com 1.10,2013-03-14 03:55:00,